[Date Prev][Date Next][Thread Prev][Thread Next] - [Date Index][Thread Index][Author Index]
2 Line ISS Keps 10-4
- Subject: [sarex] 2 Line ISS Keps 10-4
- From: "Dave Larsen PhD" <doc@xxxxxxxxxxx>
- Date: Fri, 4 Oct 2002 02:59:37 -0700
ISS
1 25544U 98067A 02277.13242878 .00045319 00000-0 53152-3 0 2166
2 25544 51.6339 225.9255 0017273 331.8808 144.6456 15.60857750221021
----
Via the sarex mailing list at AMSAT.ORG courtesy of AMSAT-NA.
To unsubscribe, send "unsubscribe sarex" to Majordomo@amsat.org
AMSAT Home